Tracking 30061 objects as of 8-Dec-2024
HD Live streaming from Space Station
objects crossing your sky now

ARIANE 44LP DEB

Track ARIANE 44LP DEB now!
10-day predictions


NORAD ID: 25540
Int'l Code: 1988-109G
Perigee: 321.9 km
Apogee: 27,112.9 km
Inclination: 6.9 °
Period: 472.3 minutes
Semi major axis: 20088 km
RCS: 0.8784 m2 (medium)
Launch date: December 11, 1988
Source: France (FR)
Launch site: FRENCH GUIANA (FRGUI)

Note: This is SATELLITE DEBRIS
Your satellite tracking list
Your tracking list is empty




NASA's NSSDC Master Catalog

Two Line Element Set (TLE):
1 25540U 88109G   24342.86842896  .00034816  00000-0  18711-1 0  9999
2 25540   6.8790 264.8253 6668284   2.6214 359.5893  3.04920042257812
Source of the keplerian elements: AFSPC